Location: Unspecified
(42.7170°S, 0.0000°E)
Time: 20:52:25
(UTC+00:00)

N. Korean satellite - Pass Details

Date: 22 May 2019
Orbit: 455 x 510 km, 97.2° (Epoch: 18 June)

Event Time Altitude Azimuth Distance (km) Brightness Sun altitude
Rises 04:36:52 0° 38° (NE) 2,476 10.7 -28.1°
Reaches altitude 10° 04:39:04 10° 50° (NE) 1,613 9.8 -27.7°
Maximum altitude 04:42:03 28° 109° (ESE) 920 8.5 -27.1°
Enters shadow 04:42:26 27° 122° (ESE) 938 8.4 -27.1°
